| time (UTC) | temp F | wind direction | speed MPH | gust MPH | rain 1hr in | rain 24hr in | rain mn in | humidity % | barometer mb |
| 20260506204517 | 60 | 323 | 2.0 | 8.0 | 0.00 | 0.00 | 0.00 | 41 | 1014.1 |
| 20260506203023 | 60 | 360 | 2.0 | 8.0 | 0.00 | 0.00 | 0.00 | 40 | 1013.9 |
| 20260506201511 | 59 | 276 | 2.0 | 4.0 | 0.00 | 0.00 | 0.00 | 41 | 1013.9 |
| 20260506200010 | 57 | 220 | 1.0 | 10.0 | 0.00 | 0.00 | 0.00 | 47 | 1013.9 |
| 20260506194512 | 57 | 317 | 1.0 | 5.0 | 0.00 | 0.00 | 0.00 | 44 | 1014.1 |
| 20260506193014 | 57 | 321 | 2.0 | 6.0 | 0.00 | 0.00 | 0.00 | 44 | 1014.2 |
| 20260506191511 | 57 | 319 | 3.0 | 8.0 | 0.00 | 0.00 | 0.00 | 43 | 1014.2 |
| 20260506190008 | 58 | 295 | 2.0 | 7.0 | 0.00 | 0.00 | 0.00 | 45 | 1014.2 |
| 20260506184506 | 57 | 142 | 5.0 | 12.0 | 0.00 | 0.00 | 0.00 | 42 | 1014.3 |
| 20260506183004 | 57 | 283 | 1.0 | 7.0 | 0.00 | 0.00 | 0.00 | 44 | 1014.2 |
| 20260506181502 | 55 | 350 | 4.0 | 12.0 | 0.00 | 0.00 | 0.00 | 45 | 1014.3 |
| 20260506180101 | 55 | 311 | 2.0 | 8.0 | 0.00 | 0.00 | 0.00 | 46 | 1014.3 |
| 20260506174604 | 54 | 254 | 0.0 | 9.0 | 0.00 | 0.00 | 0.00 | 49 | 1014.3 |
| 20260506173115 | 55 | 360 | 3.0 | 7.0 | 0.00 | 0.00 | 0.00 | 47 | 1014.4 |
| 20260506171600 | 53 | 310 | 1.0 | 9.0 | 0.00 | 0.00 | 0.00 | 49 | 1014.4 |
| 20260506170054 | 53 | 64 | 2.0 | 6.0 | 0.00 | 0.00 | 0.00 | 52 | 1014.4 |
| 20260506164553 | 50 | 309 | 3.0 | 6.0 | 0.00 | 0.00 | 0.00 | 53 | 1014.4 |
| 20260506163052 | 50 | 319 | 2.0 | 5.0 | 0.00 | 0.00 | 0.00 | 54 | 1014.4 |
| 20260506161551 | 46 | 328 | 1.0 | 3.0 | 0.00 | 0.00 | 0.00 | 60 | 1014.4 |
| 20260506160045 | 43 | 310 | 0.0 | 2.0 | 0.00 | 0.00 | 0.00 | 63 | 1014.5 |
| 20260506154537 | 42 | 175 | 0.0 | 3.0 | 0.00 | 0.00 | 0.00 | 65 | 1014.6 |
| 20260506153035 | 40 | 165 | 0.0 | 3.0 | 0.00 | 0.00 | 0.00 | 68 | 1014.6 |
| 20260506151542 | 38 | 173 | 1.0 | 4.0 | 0.00 | 0.00 | 0.00 | 70 | 1014.7 |
| 20260506150034 | 36 | 154 | 0.0 | 3.0 | 0.00 | 0.00 | 0.00 | 77 | 1014.7 |
| 20260506144534 | 34 | 360 | 0.0 | 2.0 | 0.00 | 0.00 | 0.00 | 79 | 1014.9 |
| 20260506143044 | 32 | 360 | 0.0 | 1.0 | 0.00 | 0.00 | 0.00 | 80 | 1014.9 |
| 20260506141531 | 31 | 360 | 0.0 | 2.0 | 0.00 | 0.00 | 0.00 | 83 | 1014.8 |
| 20260506140036 | 29 | 162 | 0.0 | 1.0 | 0.00 | 0.00 | 0.00 | 86 | 1014.8 |
| 20260506134529 | 28 | 163 | 0.0 | 0.0 | 0.00 | 0.00 | 0.00 | 90 | 1014.6 |
| 20260506133031 | 27 | 164 | 0.0 | 0.0 | 0.00 | 0.00 | 0.00 | 88 | 1014.6 |
| 20260506131528 | 26 | 164 | 0.0 | 1.0 | 0.00 | 0.00 | 0.00 | 87 | 1014.1 |
| 20260506130025 | 27 | 151 | 1.0 | 3.0 | 0.00 | 0.00 | 0.00 | 86 | 1014.0 |
| 20260506124522 | 27 | 78 | 0.0 | 0.0 | 0.00 | 0.00 | 0.00 | 88 | 1013.8 |
| 20260506123020 | 27 | 77 | 0.0 | 0.0 | 0.00 | 0.00 | 0.00 | 85 | 1013.5 |
| 20260506121517 | 27 | 77 | 0.0 | 1.0 | 0.00 | 0.00 | 0.00 | 86 | 1013.4 |
| 20260506120017 | 28 | 77 | 0.0 | 1.0 | 0.00 | 0.00 | 0.00 | 85 | 1013.5 |
| 20260506114520 | 28 | 77 | 0.0 | 0.0 | 0.00 | 0.00 | 0.00 | 86 | 1013.4 |
| 20260506113014 | 28 | 78 | 0.0 | 1.0 | 0.00 | 0.00 | 0.00 | 83 | 1013.0 |
| 20260506111510 | 29 | 119 | 0.0 | 0.0 | 0.00 | 0.00 | 0.00 | 81 | 1012.8 |
| 20260506110007 | 30 | 113 | 0.0 | 1.0 | 0.00 | 0.00 | 0.00 | 79 | 1012.6 |
| 20260506104504 | 31 | 117 | 0.0 | 1.0 | 0.00 | 0.00 | 0.00 | 80 | 1012.3 |
| 20260506103003 | 31 | 98 | 0.0 | 1.0 | 0.00 | 0.00 | 0.00 | 78 | 1012.2 |
| 20260506101603 | 32 | 86 | 0.0 | 1.0 | 0.00 | 0.00 | 0.00 | 76 | 1011.8 |
| 20260506100055 | 33 | 82 | 0.0 | 2.0 | 0.00 | 0.00 | 0.00 | 74 | 1011.7 |
| 20260506094557 | 34 | 81 | 0.0 | 1.0 | 0.00 | 0.00 | 0.00 | 72 | 1011.6 |
| 20260506093053 | 35 | 82 | 0.0 | 0.0 | 0.00 | 0.00 | 0.00 | 71 | 1011.5 |
| 20260506091547 | 35 | 82 | 0.0 | 1.0 | 0.00 | 0.00 | 0.00 | 71 | 1011.4 |
| 20260506090046 | 35 | 84 | 0.0 | 1.0 | 0.00 | 0.00 | 0.00 | 71 | 1011.3 |
| 20260506084548 | 36 | 86 | 0.0 | 2.0 | 0.00 | 0.00 | 0.00 | 70 | 1011.3 |
| 20260506083041 | 37 | 151 | 0.0 | 1.0 | 0.00 | 0.00 | 0.00 | 67 | 1011.1 |
| 20260506081535 | 38 | 129 | 0.0 | 4.0 | 0.00 | 0.00 | 0.00 | 65 | 1010.8 |
| 20260506073028 | 40 | 350 | 1.0 | 5.0 | 0.00 | 0.00 | 0.00 | 62 | 1010.2 |
| 20260506071526 | 41 | 16 | 0.0 | 3.0 | 0.00 | 0.00 | 0.00 | 60 | 1010.0 |
| 20260506061516 | 41 | 345 | 0.0 | 1.0 | 0.00 | 0.00 | 0.00 | 58 | 1009.2 |
| 20260506044510 | 48 | 333 | 1.0 | 8.0 | 0.00 | 0.00 | 0.00 | 43 | 1008.1 |
| 20260506043005 | 48 | 355 | 1.0 | 8.0 | 0.00 | 0.00 | 0.00 | 43 | 1007.9 |
| 20260506041504 | 49 | 15 | 1.0 | 10.0 | 0.00 | 0.00 | 0.00 | 42 | 1007.8 |
| 20260506040001 | 49 | 340 | 1.0 | 7.0 | 0.00 | 0.00 | 0.00 | 42 | 1007.7 |
| 20260506034603 | 49 | 336 | 1.0 | 7.0 | 0.00 | 0.00 | 0.00 | 42 | 1007.5 |
| 20260506033112 | 50 | 344 | 2.0 | 8.0 | 0.00 | 0.00 | 0.00 | 41 | 1007.2 |
| 20260506031558 | 50 | 304 | 3.0 | 6.0 | 0.00 | 0.00 | 0.00 | 41 | 1006.8 |
| 20260506030054 | 51 | 351 | 1.0 | 5.0 | 0.00 | 0.00 | 0.00 | 40 | 1006.4 |
| 20260506024552 | 52 | 342 | 3.0 | 8.0 | 0.00 | 0.00 | 0.00 | 38 | 1005.9 |
| 20260506023052 | 53 | 346 | 3.0 | 9.0 | 0.00 | 0.00 | 0.00 | 36 | 1005.5 |
| 20260506021555 | 54 | 360 | 1.0 | 5.0 | 0.00 | 0.00 | 0.00 | 35 | 1005.1 |
| 20260506020050 | 55 | 329 | 2.0 | 5.0 | 0.00 | 0.00 | 0.00 | 32 | 1004.9 |
| 20260506014554 | 57 | 343 | 3.0 | 9.0 | 0.00 | 0.00 | 0.00 | 31 | 1004.7 |
| 20260506013049 | 57 | 328 | 2.0 | 7.0 | 0.00 | 0.00 | 0.00 | 33 | 1004.6 |
| 20260506011548 | 56 | 327 | 0.0 | 8.0 | 0.00 | 0.00 | 0.00 | 34 | 1004.6 |
| 20260506010049 | 57 | 323 | 2.0 | 6.0 | 0.00 | 0.00 | 0.00 | 32 | 1004.5 |
| 20260506004550 | 56 | 340 | 2.0 | 7.0 | 0.00 | 0.00 | 0.00 | 32 | 1004.4 |
| 20260506003048 | 56 | 360 | 1.0 | 4.0 | 0.00 | 0.00 | 0.00 | 33 | 1004.3 |
| 20260506001607 | 56 | 360 | 1.0 | 8.0 | 0.00 | 0.00 | 0.00 | 32 | 1004.2 |
| 20260506000049 | 56 | 360 | 2.0 | 5.0 | 0.00 | 0.00 | 0.00 | 31 | 1004.0 |
| 20260505234550 | 56 | 360 | 1.0 | 6.0 | 0.00 | 0.00 | 0.00 | 30 | 1004.0 |
| 20260505233053 | 57 | 360 | 3.0 | 7.0 | 0.00 | 0.00 | 0.00 | 28 | 1004.0 |
| 20260505231551 | 58 | 325 | 2.0 | 10.0 | 0.00 | 0.00 | 0.00 | 28 | 1003.8 |
| 20260505230045 | 60 | 314 | 1.0 | 7.0 | 0.00 | 0.00 | 0.00 | 28 | 1003.8 |
| 20260505224547 | 61 | 306 | 4.0 | 11.0 | 0.00 | 0.00 | 0.00 | 27 | 1003.9 |
| 20260505223051 | 60 | 328 | 2.0 | 9.0 | 0.00 | 0.00 | 0.00 | 28 | 1003.9 |
| 20260505221549 | 61 | 317 | 4.0 | 10.0 | 0.00 | 0.00 | 0.00 | 28 | 1004.0 |
| 20260505220043 | 61 | 320 | 2.0 | 7.0 | 0.00 | 0.00 | 0.00 | 28 | 1004.2 |
| 20260505214556 | 61 | 329 | 2.0 | 11.0 | 0.00 | 0.00 | 0.00 | 28 | 1004.3 |
| 20260505213052 | 61 | 45 | 4.0 | 10.0 | 0.00 | 0.00 | 0.00 | 27 | 1004.4 |
| 20260505211538 | 60 | 350 | 4.0 | 12.0 | 0.00 | 0.00 | 0.00 | 27 | 1004.5 |
| 20260505210037 | 61 | 330 | 5.0 | 15.0 | 0.00 | 0.00 | 0.00 | 25 | 1004.5 |